Change the Weather History Date:

Wednesday, June 26, 2013

  Actual Average Record
Temperature  
Mean Temperature 81 °F 75 °F  
Max Temperature 103 °F 90 °F 110 °F (2011)
Min Temperature 58 °F 60 °F 45 °F (1968)
Degree Days  
Heating Degree Days 0 0  
Month to date heating degree days 0 9  
Since 1 June heating degree days 0 9  
Since 1 July heating degree days 4400 4726  
Cooling Degree Days 16 10  
Month to date cooling degree days 339 196  
Year to date cooling degree days 493 268  
Since 1 June cooling degree days 339 196  
Growing Degree Days 32 (Base 50)    
Moisture  
Dew Point 41 °F    
Average Humidity 29    
Maximum Humidity 48    
Minimum Humidity 9    
Precipitation  
Precipitation 0.00 in 0.08 in 1.76 in (1992)
Month to date precipitation 0.61 1.98  
Year to date precipitation 1.91 7.39  
Snow  
Snow 0.00 in 0.00 in T in (1992)
Month to date snowfall 0.0 0.0  
Since 1 June snowfall 0.0 0.0  
Since 1 July snowfall 21.6 18.9  
Snow Depth 0.00 in    
Sea Level Pressure  
Sea Level Pressure 29.76 in    
Wind  
Wind Speed 10 mph (NE)    
Max Wind Speed 20 mph    
Max Gust Speed 24 mph    
Visibility 10 miles    
Events      
T = Trace of Precipitation, MM = Missing Value Source: NWS Daily Summary

Daily Weather History Graph

Daily Weather History Graph

Search for Another Location

Airport or City:

Trip Planner

Search our weather history database for the weather conditions in past years. The results will help you decide how hot, cold, wet, or windy it might be!

Date:

Astronomy

Jun. 26, 2013 Rise Set
Actual Time 6:35 AM CDT 9:11 PM CDT
Civil Twilight 6:04 AM CDT 9:41 PM CDT
Nautical Twilight 5:27 AM CDT 10:18 PM CDT
Astronomical Twilight 4:45 AM CDT 11:00 PM CDT
Moon 11:44 PM CDT (6/26) 10:22 AM CDT (6/26)
Length of Visible Light 15h 36m
Length of Day
14h 35m
Waning Gibbous, 85% of the Moon is Illuminated
Jun 26
Waning Gibbous
Jun 29
Last Quarter
Jul 8
New
Jul 15
First Quarter
Jul 22
Full

Hourly Weather History & Observations

Time (CDT) Temp. Heat Index Dew Point Humidity Pressure Visibility Wind Dir Wind Speed Gust Speed Precip Events Conditions
12:53 AM 75.0 °F - 32.0 °F 21% 29.68 in 10.0 mi East 9.2 mph - N/A   Clear
1:53 AM 73.0 °F - 34.0 °F 24% 29.67 in 10.0 mi East 3.5 mph - N/A   Clear
2:53 AM 69.1 °F - 35.1 °F 29% 29.67 in 10.0 mi NW 3.5 mph - N/A   Clear
3:53 AM 62.1 °F - 37.9 °F 41% 29.68 in 10.0 mi WSW 3.5 mph - N/A   Clear
4:53 AM 66.0 °F - 37.0 °F 34% 29.69 in 10.0 mi NW 4.6 mph - N/A   Clear
5:53 AM 64.0 °F - 37.9 °F 38% 29.71 in 10.0 mi WNW 5.8 mph - N/A   Clear
6:53 AM 64.0 °F - 37.0 °F 37% 29.74 in 10.0 mi NW 9.2 mph - N/A   Clear
7:53 AM 66.9 °F - 39.9 °F 37% 29.78 in 10.0 mi NW 8.1 mph - N/A   Clear
8:53 AM 75.0 °F - 48.9 °F 40% 29.79 in 9.0 mi NNW 8.1 mph - N/A   Clear
9:53 AM 82.0 °F 81.2 °F 53.1 °F 37% 29.80 in 10.0 mi North 15.0 mph - N/A   Clear
10:53 AM 89.1 °F - 52.0 °F 28% 29.80 in 9.0 mi NNE 13.8 mph - N/A   Clear
11:53 AM 95.0 °F - 48.0 °F 20% 29.80 in 10.0 mi NNE 16.1 mph - N/A   Clear
12:53 PM 97.0 °F - 46.9 °F 18% 29.80 in 10.0 mi NE 17.3 mph 23.0 mph N/A   Clear
1:53 PM 99.0 °F - 39.0 °F 13% 29.79 in 10.0 mi ENE 13.8 mph - N/A   Clear
2:53 PM 100.9 °F - 36.0 °F 11% 29.80 in 10.0 mi East 17.3 mph - N/A   Clear
3:53 PM 100.9 °F - 35.1 °F 10% 29.80 in 10.0 mi ENE 10.4 mph 19.6 mph N/A   Clear
4:53 PM 100.9 °F - 32.0 °F 9% 29.77 in 10.0 mi ENE 13.8 mph - N/A   Clear
5:53 PM 102.0 °F - 34.0 °F 9% 29.77 in 10.0 mi East 15.0 mph - N/A   Clear
6:53 PM 100.9 °F - 36.0 °F 11% 29.77 in 10.0 mi East 10.4 mph - N/A   Clear
7:53 PM 98.1 °F - 41.0 °F 14% 29.77 in 10.0 mi East 11.5 mph - N/A   Clear
8:53 PM 90.0 °F - 44.1 °F 20% 29.78 in 10.0 mi ENE 9.2 mph - N/A   Clear
9:53 PM 84.9 °F - 46.0 °F 26% 29.81 in 10.0 mi East 9.2 mph - N/A   Clear
10:53 PM 81.0 °F 80.4 °F 53.1 °F 38% 29.82 in 10.0 mi ESE 8.1 mph - N/A   Clear
11:53 PM 79.0 °F - 57.9 °F 48% 29.82 in 10.0 mi SE 8.1 mph - N/A   Clear